Weather History for GMTN - October, 2012

Change the Weather History Date:

Tuesday, October 9, 2012

  Actual Average Record
Temperature  
Mean Temperature 70 °F -  
Max Temperature 80 °F 70 °F 85 °F (2014)
Min Temperature 59 °F 59 °F 50 °F (1996)
Cooling Degree Days 4    
Growing Degree Days 20 (Base 50)    
Moisture  
Dew Point 62 °F    
Average Humidity 81    
Maximum Humidity 94    
Minimum Humidity 48    
Precipitation  
Precipitation 0.00 in - - ()
Sea Level Pressure  
Sea Level Pressure 30.03 in    
Wind  
Wind Speed 4 mph ()    
Max Wind Speed 9 mph    
Max Gust Speed -    
Visibility 2.3 miles    
Events Fog    
Averages and records for this station are not official NWS values.
T = Trace of Precipitation, MM = Missing Value Source: Averaged Metar Reports

Daily Weather History Graph

Daily Weather History Graph

Search for Another Location

Airport or City:

Trip Planner

Search our weather history database for the weather conditions in past years. The results will help you decide how hot, cold, wet, or windy it might be!

Date:

Astronomy

Oct. 09, 2012 Rise Set
Actual Time 6:22 AM WET 5:53 PM WET
Civil Twilight 5:57 AM WET 6:19 PM WET
Nautical Twilight 5:27 AM WET 6:48 PM WET
Astronomical Twilight 4:58 AM WET 7:18 PM WET
Moon No Moon Rise 2:00 PM WET (10/9)
Length of Visible Light 12h 21m
Length of Day
11h 30m
Last Quarter, 38% of the Moon is Illuminated
Oct 9
Last Quarter
Oct 15
New
Oct 22
First Quarter
Oct 29
Full
Nov 7
Last Quarter

Hourly Weather History & Observations

Time (WET) Temp. Heat Index Dew Point Humidity Pressure Visibility Wind Dir Wind Speed Gust Speed Precip Events Conditions
12:00 AM 64 °F - 62 °F 92% 30.06 in 1 mi SSW 2.3 mph - -  
12:00 AM 64.4 °F - 62.6 °F 94% 30.04 in 1.2 mi SSW 2.3 mph - N/A   Unknown
2:00 AM 60.8 °F - 59.0 °F 94% 30.04 in 1.1 mi Variable 2.3 mph - N/A   Unknown
3:00 AM 63 °F - 60 °F 85% 30.04 in 1 mi SSW 5.8 mph - -  
3:00 AM 62.6 °F - 59.0 °F 88% 30.01 in 1.1 mi SSW 5.8 mph - N/A   Unknown
4:00 AM 60.8 °F - 59.0 °F 94% 30.01 in 1.6 mi WNW 1.2 mph - N/A   Unknown
5:00 AM 60.8 °F - 57.2 °F 88% 30.04 in 1.2 mi SSW 5.8 mph - N/A   Unknown
6:00 AM 62 °F - 58 °F 82% 30.04 in 1 mi SSW 8.1 mph - -  
6:00 AM 60.8 °F - 57.2 °F 88% 30.04 in 1.5 mi SSW 8.1 mph - N/A   Unknown
7:00 AM 60.8 °F - 57.2 °F 88% 30.04 in 3.1 mi SSW 4.6 mph - N/A   Partly Cloudy
8:00 AM 66.2 °F - 60.8 °F 83% 30.04 in 5.0 mi SSW 5.8 mph - N/A   Partly Cloudy
9:00 AM 73 °F - 60 °F 54% 30.07 in 5 mi SSW 4.6 mph - -  
9:00 AM 73.4 °F - 60.8 °F 65% 30.06 in 5.0 mi SSW 4.6 mph - N/A   Unknown
10:00 AM 80.6 °F 81.1 °F 59.0 °F 48% 30.06 in 5.0 mi SE 3.5 mph - N/A   Unknown
12:00 PM 77 °F - 65 °F 59% 30.04 in 6 mi East 8.1 mph - -  
12:00 PM 77.0 °F - 66.2 °F 69% 30.04 in - East 8.1 mph - N/A   Clear
1:00 PM 77.0 °F - 66.2 °F 69% 30.01 in - East 9.2 mph - N/A   Clear
2:00 PM 75.2 °F - 66.2 °F 73% 30.01 in - East 9.2 mph - N/A   Clear
6:00 PM 68 °F - 66 °F 90% 30.00 in 1 mi East 3.5 mph - -   Mist
6:00 PM 68.0 °F - 66.2 °F 94% 29.98 in 1.2 mi East 4.6 mph - N/A   Scattered Clouds
7:00 PM 68.0 °F - 66.2 °F 94% 29.98 in 0.3 mi Variable 2.3 mph - N/A Fog Fog